Regional Weather Roundup
Issued by NWS Grand Forks, ND

Home | Current Version | Previous Version | Text Only | Print | Product List | Glossary On
Versions: 1 2 3 4 5 6 7 8 9 10 11 12 13 14 15 16 17 18 19 20 21 22 23 24 25 26 27 28 29 30 31 32 33 34 35 36 37 38 39 40 41 42 43 44 45 46 47 48 49 50
000
ASUS43 KFGF 230031
RWRFGF
PRAIRIE TO PINES  WEATHER ROUNDUP
NATIONAL WEATHER SERVICE EASTERN NORTH DAKOTA/GRAND FORKS ND
700 PM CDT MON SEP 22 2014

 **SATELLITE DATA USED TO AUGMENT SKY COVER AT AUTOMATED STATIONS**
 *****  WEATHER ACROSS EASTERN NORTH DAKOTA  *****

CITY           SKY/WX    TMP DP  RH WIND       PRES   REMARKS
GRAND FORKS    CLEAR     70  49  47 S8        30.01F
6HR MIN TEMP:  70; 6HR MAX TEMP:  78;

GRAND FRKS AFB CLEAR     70  48  44 S8        30.02S
GRAND FRKS NWS   N/A     68 N/A N/A S3          N/A
DEVILS LAKE    CLEAR     70  46  43 SE8       29.98S
6HR MIN TEMP:  72; 6HR MAX TEMP:  79;

FARGO          CLEAR     73  46  38 S7        30.04F
WAHPETON ARPT  CLEAR     68  43  40 S10       30.06S
$$

 ***** WEATHER ACROSS CENTRAL AND WESTERN NORTH DAKOTA  *****

CITY           SKY/WX    TMP DP  RH WIND       PRES   REMARKS
BISMARCK       PTCLDY    71  49  45 SE8       29.95S
6HR MIN TEMP:  71; 6HR MAX TEMP:  84;

MINOT          CLEAR     77  46  33 SE9       29.91F
6HR MIN TEMP:  75; 6HR MAX TEMP:  82;

JAMESTOWN      CLEAR     68  50  52 SE8       30.01F
6HR MIN TEMP:  68; 6HR MAX TEMP:  76;

MINOT AFB      CLEAR     75  50  40 SE9       29.91S
GARRISON         N/A     74  51  44 S7        29.93R
WILLISTON      CLEAR     80  48  32 SE8       29.87S
6HR MIN TEMP:  74; 6HR MAX TEMP:  85;

DICKINSON      MOCLDY    71  51  49 SE12      29.90F
6HR MIN TEMP:  71; 6HR MAX TEMP:  79;

HETTINGER      PTCLDY    73  50  44 E13       29.92S
6HR MIN TEMP:  67; 6HR MAX TEMP:  79; 6HR PCP: TRACE;

$$

 *****  OTHER AIRPORT OBSERVATIONS IN OUR AREA  *****

CITY           SKY/WX    TMP DP  RH WIND       PRES   REMARKS
WALHALLA         N/A     70  48  46 S5        29.99S
GRAFTON AIRPOR FAIR      66  50  55 S8        30.00F
VALLEY CITY AR FAIR      66  48  52 S8        30.03F
CANDO          FAIR      66  48  52 SE8       29.98F
CAVALIER APRT  FAIR      68  50  52 S6        29.99S
GWINNER        CLEAR     68  46  45 S10       30.06S
SHEYENNE NWR     N/A     72  48  42 S6        29.95S
ROLLA          FAIR      68  43  40 S8        29.99S
 ***** THE ABOVE OBSERVATIONS ARE NON NWS ARE NOT QUALITY
       CONTROLLED AND MAY MIS-REPORT RAIN FOR SNOW...
$$

  *****  WEATHER ACROSS NORTHERN MINNESOTA  *****

CITY           SKY/WX    TMP DP  RH WIND       PRES   REMARKS
FLAG ISLAND    CLEAR     66  52  59 SW5       30.02S
WARROAD        CLEAR     66  55  68 SW5       30.05S
ROSEAU         CLEAR     64  54  68 S3        30.04S
HALLOCK        CLEAR     68  48  49 S8        30.01R
THF RVR FALLS  CLEAR     64  48  55 S7        30.05S
6HR MIN TEMP:  68; 6HR MAX TEMP:  73;

BAUDETTE       CLEAR     66  50  56 SW3       30.05R
6HR MIN TEMP:  66; 6HR MAX TEMP:  75;

WASKISH        CLEAR     61  54  77 CALM      30.07S
CROOKSTON      CLEAR     66  52  59 S7        30.05S
STEPHEN NDAWN    N/A     70  52  52 S7          N/A
GREENBUSH NDAW   N/A     70  52  52 S5          N/A
$$
  *****  WEATHER ACROSS CENTRAL AND WEST MINNESOTA  *****

CITY           SKY/WX    TMP DP  RH WIND       PRES   REMARKS
FOSSTON        CLEAR     63  48  59 S5        30.08S
BEMIDJI        CLEAR     66  49  52 SW3       30.09S
PARK RAPIDS    CLEAR     65  49  56 SW6       30.10F
6HR MIN TEMP:  65; 6HR MAX TEMP:  73;

ELBOW LAKE     FAIR      60  51  72 S7        30.09S
6HR MIN TEMP:  63; 6HR MAX TEMP:  72;

WADENA         CLEAR     63  50  63 S5        30.11F
DETROIT LAKES  CLEAR     64  52  63 S6        30.10S
MOORHEAD       CLEAR     72  45  37 S6        30.05F
FERGUS FALLS   CLEAR     64  45  48 S6        30.08S
MORRIS MN      CLEAR     64  52  63 SE5       30.10S
STAPLES        CLEAR     61  50  67 S3        30.12S
$$
  *****  WEATHER ELSEWHERE ACROSS MINNESOTA  *****

CITY           SKY/WX    TMP DP  RH WIND       PRES   REMARKS
DULUTH         CLEAR     65  50  58 W8        30.11S
6HR MIN TEMP:  65; 6HR MAX TEMP:  72;

INTRNTL FALLS  CLEAR     65  51  60 SW5       30.05S
6HR MIN TEMP:  65; 6HR MAX TEMP:  74;

ELY            CLEAR     63  48  59 SW3       30.08S
CLOQUET        CLEAR     64  48  55 SW3       30.12S
WHEATON        CLEAR     63  48  59 SE8       30.10R
BRAINERD       CLEAR     63  50  62 S6        30.12F
6HR MIN TEMP:  63; 6HR MAX TEMP:  71;

HIBBING        CLEAR     63  53  70 CALM      30.10S
6HR MIN TEMP:  63; 6HR MAX TEMP:  73;

ALEXANDRIA     CLEAR     66  50  56 S7        30.12F
6HR MIN TEMP:  66; 6HR MAX TEMP:  71;

SAINT CLOUD    CLEAR     68  52  56 S6        30.13F
6HR MIN TEMP:  68; 6HR MAX TEMP:  75;

MINNEAPOLIS    CLEAR     69  49  48 S6        30.15F
6HR MIN TEMP:  66; 6HR MAX TEMP:  72;

$$

  *****  WEATHER ACROSS SOUTH DAKOTA  *****

CITY           SKY/WX    TMP DP  RH WIND       PRES   REMARKS
SIOUX FALLS    MOCLDY    68  48  48 S10       30.13F
6HR MIN TEMP:  68; 6HR MAX TEMP:  74;

BROOKINGS      NOT AVBL
WATERTOWN      PTCLDY    67  47  48 S9        30.10S
6HR MIN TEMP:  67; 6HR MAX TEMP:  74;

HURON          CLEAR     72  48  42 S13G22    30.05F
6HR MIN TEMP:  72; 6HR MAX TEMP:  77;

SISSETON         N/A     65  50  58 S7        30.07S
ABERDEEN       PTCLDY    71  48  43 S10       30.04S
6HR MIN TEMP:  71; 6HR MAX TEMP:  78;

MITCHELL       PTCLDY    71  50  47 SE12      30.09S
PIERRE         PTCLDY    73  48  41 S21G29    29.97S
6HR MIN TEMP:  73; 6HR MAX TEMP:  82;

MOBRIDGE       PTCLDY    78  51  38 S17       29.93F
RAPID CITY     CLOUDY    71  51  49 S16G26    29.91F
6HR MIN TEMP:  69; 6HR MAX TEMP:  78; 6HR PCP: TRACE;

$$

  *****  SOME WEATHER IN NEARBY STATES *****

CITY           SKY/WX    TMP DP  RH WIND       PRES   REMARKS
GLASGOW MT     CLEAR     79  48  33 S7        29.83S
6HR MIN TEMP:  70; 6HR MAX TEMP:  82;

GREAT FALLS MT MOSUNNY   76  49  38 SW13      29.88S
6HR MIN TEMP:  76; 6HR MAX TEMP:  84;

CHEYENNE WY    CLOUDY    72  43  35 N6        30.15R
6HR MIN TEMP:  59; 6HR MAX TEMP:  74; 6HR PCP:  0.02;

SCOTTSBLUFF NE PTCLDY    69  58  67 SE7       30.04F
6HR MIN TEMP:  61; 6HR MAX TEMP:  79; 6HR PCP:  0.06;

OMAHA NE       MOCLDY    70  50  49 SE8       30.18F
6HR MIN TEMP:  69; 6HR MAX TEMP:  74;

DES MOINES IA  PTCLDY    69  50  50 S6        30.21S
6HR MIN TEMP:  68; 6HR MAX TEMP:  74;

DAVENPORT IA   CLEAR     60  47  61 S5        30.23F
6HR MIN TEMP:  60; 6HR MAX TEMP:  72;

CHICAGO IL     CLEAR     65  43  44 CALM      30.23R
6HR MIN TEMP:  58; 6HR MAX TEMP:  67;

EAU CLAIRE WI  CLEAR     64  51  62 SW3       30.16F
6HR MIN TEMP:  64; 6HR MAX TEMP:  70;

LA CROSSE WI   CLEAR     65  54  67 CALM      30.17F
6HR MIN TEMP:  65; 6HR MAX TEMP:  73; 6HR PCP: TRACE;

$$

  *****  SOME NATIONAL WEATHER *****

CITY           SKY/WX    TMP DP  RH WIND       PRES   REMARKS
LA GUARDIA NY  MOCLDY    61  43  51 NW15      30.06R
6HR MIN TEMP:  61; 6HR MAX TEMP:  72;

RALEIGH NC     CLOUDY    66  56  70 CALM      30.11R
6HR MIN TEMP:  65; 6HR MAX TEMP:  76;

ATLANTA GA     PTCLDY    71  50  47 N8        30.06R
6HR MIN TEMP:  71; 6HR MAX TEMP:  82;

NEW ORLEANS LA PTCLDY    84  65  52 NE16      29.98R
6HR MIN TEMP:  84; 6HR MAX TEMP:  90;

OKLAHOMA CITY  PTCLDY    75  48  38 E7        30.17S
6HR MIN TEMP:  74; 6HR MAX TEMP:  83;

ALBUQUERQUE NM TSTM      75  56  51 NW12      30.18S
6HR MIN TEMP:  73; 6HR MAX TEMP:  81; 6HR PCP: TRACE;

SALT LAKE CITY MOSUNNY   76  49  38 N3        30.09F
6HR MIN TEMP:  71; 6HR MAX TEMP:  77;




USA.gov is the U.S. government's official web portal to all federal, state and local government web resources and services.